Theta_e
311 313 320 321 329 333 334 335 334 335 334 337 336 337 339 343 350 365 355 354 355 356 344 346 343 340 337 336 343 348 345 341 339 338 335 327 322 321 325 328 332 331 330 330 331 331 328 324 324
320 317 317 322 331 335 336 335 336 335 335 335 335 336 338 349 351 355 356 353 356 356 343 345 342 339 335 334 339 346 345 342 340 338 336 329 322 322 325 329 331 332 331 328 326 324 323 322 322
313 316 318 323 328 333 337 337 336 336 334 333 334 335 341 353 352 356 359 354 356 355 348 341 340 336 332 332 338 345 345 343 342 340 337 330 323 322 325 330 329 325 323 325 326 325 324 322 323
316 315 318 322 323 328 332 336 336 336 334 332 333 334 340 342 348 356 356 354 355 352 349 340 338 334 331 332 336 343 345 343 342 341 336 331 324 323 326 327 325 325 325 327 327 327 324 325 329
316 318 320 321 323 325 329 331 335 335 335 333 332 332 339 348 348 355 354 354 352 349 348 339 335 332 331 336 340 343 344 343 342 340 333 330 325 323 327 326 327 326 324 328 328 331 327 331 335
317 317 321 321 322 324 326 327 330 334 334 333 333 332 338 346 348 356 353 353 351 349 350 337 334 332 330 332 338 340 340 340 338 333 330 328 326 323 326 328 325 324 324 326 329 332 334 335 338
320 321 320 322 323 324 325 324 328 329 333 333 333 333 340 343 350 356 353 353 350 349 348 338 334 330 329 328 328 328 328 329 329 328 326 327 326 322 326 327 325 325 323 323 324 328 330 334 336
318 322 322 322 323 324 325 324 324 325 327 328 330 330 331 346 347 355 353 352 350 349 346 345 338 330 329 330 329 329 326 323 323 324 325 324 324 321 325 327 326 325 325 324 323 323 323 325 327
318 321 322 323 323 324 325 323 322 321 322 322 323 324 339 346 345 352 353 352 351 349 347 344 343 341 340 338 333 332 328 325 324 325 322 322 322 321 324 327 327 326 325 325 325 323 323 323 323
322 321 322 323 324 325 324 323 322 321 321 322 322 323 336 343 344 351 355 353 352 350 348 345 344 344 343 343 337 335 333 329 326 324 323 325 336 334 340 335 327 327 326 325 325 325 322 321 322
321 321 323 323 323 323 323 323 321 322 322 321 321 322 330 340 345 347 353 353 352 351 349 346 346 345 344 344 344 343 343 342 339 337 330 336 336 339 337 340 334 324 323 324 328 327 325 324 332
321 320 320 322 322 321 322 322 322 321 322 322 321 321 324 333 341 346 351 354 353 352 351 348 348 347 346 345 347 345 345 345 345 345 341 339 341 343 341 339 343 340 342 340 340 341 340 338 337
323 322 320 320 321 321 319 321 321 322 321 321 320 320 320 329 336 342 351 353 354 353 352 350 350 349 348 348 348 346 346 346 347 348 349 346 347 345 344 341 340 339 339 338 338 338 338 338 339
321 322 321 320 320 320 320 320 320 320 320 320 320 319 319 320 328 338 351 354 355 355 354 352 352 351 351 350 349 349 348 348 348 348 349 349 349 348 347 346 345 343 342 340 338 337 337 338 339
321 322 321 321 320 320 319 319 320 320 320 319 318 318 318 319 320 327 341 354 357 356 356 355 354 354 352 353 353 352 351 351 349 348 350 350 347 349 349 348 347 345 344 343 342 340 338 338 338
320 321 322 321 320 320 319 320 321 319 319 319 318 319 319 319 320 322 325 352 358 356 356 355 354 356 353 352 353 352 352 351 351 350 351 347 342 343 346 348 345 346 345 344 342 340 338 337 338
320 320 321 322 322 321 319 320 321 321 319 319 319 319 319 319 320 322 327 349 360 358 356 357 355 355 353 354 353 352 351 351 350 351 350 349 351 348 347 348 347 347 346 345 343 343 341 339 339
321 321 322 321 323 321 321 321 322 321 321 320 320 320 319 319 320 323 329 343 358 357 357 357 356 355 355 354 353 351 352 352 352 351 349 350 350 349 348 347 347 348 348 347 345 345 344 344 343
323 323 323 323 322 321 321 322 322 322 322 321 321 321 320 320 320 325 333 340 354 356 355 356 356 355 354 353 353 353 351 351 350 347 349 348 347 346 348 347 347 346 344 344 342 342 342 341 341
322 324 325 324 323 321 322 322 322 323 322 322 321 322 321 321 321 324 331 343 349 356 354 356 356 356 355 352 352 352 352 350 348 348 347 347 347 347 345 346 348 346 345 345 345 344 344 344 342
322 323 324 324 322 323 322 323 323 323 322 322 321 321 321 321 322 324 337 347 350 353 354 353 354 355 353 351 351 353 351 349 350 349 345 346 349 348 347 345 343 342 341 343 342 343 342 341 339
323 322 323 323 323 322 322 324 324 324 323 323 322 322 322 322 322 328 337 348 352 353 352 352 353 354 353 352 352 350 350 348 348 347 347 348 346 345 345 340 337 335 336 340 340 339 338 338 339
321 321 322 324 324 323 323 323 326 324 324 323 323 322 322 322 322 326 330 337 346 353 352 351 352 350 353 352 350 350 348 349 348 348 344 345 339 335 336 334 332 331 335 335 334 334 336 334 335
319 321 322 323 324 324 325 323 325 326 325 324 323 322 322 322 322 322 324 331 340 346 352 350 349 350 349 349 350 349 349 347 346 346 343 341 340 335 334 332 330 328 328 328 327 327 330 331 330
318 322 323 323 323 325 325 324 326 326 325 324 324 322 321 322 322 323 328 338 342 343 345 348 347 346 346 347 349 348 346 346 344 341 340 337 334 331 326 325 324 324 324 324 324 323 323 325 325
320 323 325 325 325 324 324 324 324 328 327 324 322 323 325 326 325 324 332 336 339 342 343 345 346 344 343 343 344 344 340 339 336 334 332 330 328 325 324 324 322 321 320 319 317 315 317 314 313
319 322 324 322 322 323 325 328 333 331 331 332 331 330 329 328 330 335 336 336 339 340 340 341 340 339 338 337 335 334 332 331 328 326 326 325 324 321 320 316 314 313 313 313 312 316 314 315 315
321 322 324 323 324 324 325 329 331 332 333 332 331 329 331 332 332 333 335 337 337 337 336 335 335 334 334 332 330 328 327 326 325 323 321 319 316 314 314 313 312 312 312 312 310 314 317 313 315
320 321 323 323 323 326 326 328 329 331 331 330 328 327 328 331 331 332 333 333 333 333 333 332 331 329 327 326 325 323 322 321 319 318 315 313 313 312 312 311 312 315 315 315 313 315 315 316 316
318 321 323 324 326 325 326 337 329 331 330 328 328 329 329 329 330 330 330 330 329 328 327 326 325 324 323 322 321 320 319 318 318 316 313 311 310 311 311 313 314 314 315 316 316 316 316 316 316
Wind_Speed
12 9 8 11 8 9 19 22 20 4 7 1 5 9 9 11 16 6 11 10 20 22 28 26 24 23 21 20 21 22 21 19 18 15 14 14 15 16 15 13 11 11 10 9 8 7 6 6 6
6 10 12 15 11 16 16 23 20 8 5 8 7 7 9 14 13 11 12 16 20 22 27 26 25 23 20 20 22 23 22 20 18 15 13 13 15 16 15 12 11 10 9 8 7 7 7 8 7
10 11 16 10 18 20 19 20 20 15 8 6 3 3 6 10 6 7 8 19 21 21 25 26 25 22 20 19 22 24 23 21 18 15 12 12 14 16 15 12 10 9 9 8 7 8 8 9 9
8 12 14 15 22 28 28 24 2 5 10 7 4 6 8 5 2 3 12 20 19 20 22 26 24 21 19 19 21 23 23 21 18 15 12 12 15 17 14 12 11 10 10 9 8 9 10 11 11
16 15 12 19 25 25 23 30 8 10 12 16 14 12 8 6 4 7 16 19 19 21 20 26 24 21 20 21 23 23 21 20 17 15 13 13 14 16 15 13 11 11 10 10 9 9 10 11 9
16 21 15 20 24 25 25 24 25 11 16 12 6 13 2 8 5 10 16 19 18 20 20 26 24 21 20 21 22 20 19 18 16 15 13 13 14 16 15 12 11 10 10 10 9 9 9 10 9
19 15 20 24 22 24 22 27 15 16 20 19 9 9 11 8 7 11 16 19 20 19 19 25 24 23 21 20 19 18 17 17 16 15 14 14 14 16 15 12 11 10 9 9 10 10 10 10 11
26 16 25 23 22 24 15 20 11 17 20 20 17 8 12 19 10 12 17 20 20 19 19 21 23 24 23 21 20 17 15 14 14 13 12 13 14 15 15 13 11 9 8 8 9 11 12 13 14
25 17 21 27 25 20 19 10 14 18 21 20 14 19 7 11 12 13 19 20 21 20 20 20 21 21 20 20 22 19 17 15 14 14 14 14 15 16 16 14 13 11 10 10 11 12 13 14 15
22 18 30 22 21 22 14 15 16 16 16 17 18 20 7 10 12 14 20 23 24 23 22 21 21 21 20 17 21 21 19 17 16 15 15 15 13 13 12 14 14 14 13 14 14 14 15 16 16
32 27 20 23 23 18 14 16 19 16 16 20 23 20 14 13 12 14 20 23 25 23 22 23 22 21 20 17 17 16 15 14 14 14 15 14 11 11 13 12 15 17 16 16 16 18 19 17 14
27 31 31 28 20 15 16 17 18 19 17 13 18 20 18 17 15 16 19 23 24 25 24 24 23 23 22 18 15 16 14 14 13 14 15 13 12 12 11 11 10 11 12 12 13 13 14 14 16
33 27 26 30 30 18 19 22 21 22 17 14 10 16 13 14 18 17 17 22 24 26 26 25 24 24 25 21 16 17 15 15 13 13 14 13 11 11 10 11 11 11 11 13 13 15 17 18 19
28 30 29 23 23 23 20 20 21 23 19 20 16 17 19 19 17 16 17 22 26 26 26 25 24 25 24 23 18 17 16 15 14 13 14 16 13 13 12 12 12 12 12 12 13 13 16 19 19
26 25 22 28 23 24 23 21 25 23 19 19 21 24 23 24 22 20 17 22 25 27 24 24 23 23 22 23 19 17 15 14 14 14 16 16 17 14 13 12 12 12 12 14 14 13 15 18 19
27 24 24 24 29 24 23 24 24 27 28 25 23 22 23 23 25 23 21 22 24 25 25 25 23 24 28 28 23 21 15 14 14 14 15 17 15 17 15 13 12 12 12 13 13 12 14 17 19
17 26 33 26 27 23 24 16 22 25 33 29 27 25 22 21 24 22 20 24 26 26 25 25 24 22 21 20 18 19 16 16 16 13 14 11 15 13 15 13 13 16 13 14 13 13 15 17 21
31 28 24 27 24 26 25 25 18 27 19 28 27 25 25 24 25 23 20 22 26 26 23 22 22 21 21 19 19 18 19 17 14 14 12 12 14 11 13 13 15 14 13 14 16 17 19 20 21
24 24 26 20 24 20 25 22 23 14 19 21 25 26 25 26 25 24 20 21 25 25 22 23 22 22 22 24 21 17 17 14 13 12 11 15 13 10 13 12 15 16 16 17 19 20 22 23 22
31 27 25 24 19 20 21 24 21 19 14 20 22 22 25 24 24 24 22 21 25 24 25 24 22 21 19 19 16 15 15 13 14 14 14 11 10 12 13 11 11 14 16 17 18 19 19 22 23
29 30 22 21 16 18 20 23 25 23 20 17 16 25 24 24 27 26 19 21 25 24 27 26 24 21 20 16 19 15 14 13 12 9 11 11 10 11 13 14 14 14 15 11 17 16 18 22 22
27 29 25 18 20 15 23 15 23 22 21 18 20 20 24 25 28 24 22 21 23 23 25 23 23 22 21 21 17 17 12 12 11 12 10 9 11 6 5 9 8 10 10 12 14 17 17 15 16
24 24 25 19 22 17 20 14 22 22 24 23 20 23 22 25 29 28 27 21 19 22 23 22 23 21 26 19 14 13 12 12 11 10 9 12 5 5 4 7 11 12 7 13 16 19 16 20 19
25 22 24 17 16 14 21 19 19 23 26 22 21 26 23 24 25 22 20 24 21 20 20 19 20 18 18 16 14 13 15 12 10 9 7 6 4 2 5 6 5 7 7 11 12 15 14 15 14
24 20 16 15 13 17 20 16 17 23 23 21 23 27 28 22 19 15 19 19 21 21 20 19 19 17 17 16 16 17 17 17 15 10 8 9 6 2 3 5 7 10 12 14 15 15 17 14 18
27 24 17 28 22 20 24 13 13 14 11 22 30 24 19 19 22 23 23 22 22 21 20 19 19 19 18 19 17 16 14 14 13 14 11 8 5 1 5 8 9 10 12 14 15 14 16 19 19
33 26 29 20 20 16 17 14 14 11 13 14 20 22 15 17 20 19 19 21 21 21 20 22 22 21 20 20 20 19 18 17 14 12 8 5 4 3 5 7 9 12 14 16 17 12 18 19 17
27 27 26 19 21 21 21 22 13 15 16 15 15 17 14 16 22 24 24 24 23 23 25 23 22 22 21 20 18 17 15 13 10 7 4 2 1 3 6 8 12 14 15 15 18 14 14 18 17
16 20 23 23 14 19 15 18 14 23 21 18 16 21 23 22 22 24 25 25 25 25 24 24 23 22 21 19 17 16 14 12 9 7 5 4 5 6 8 11 12 11 12 14 17 16 15 15 16
24 28 31 13 24 15 12 5 4 26 20 22 24 29 29 28 29 29 29 28 27 26 25 24 22 21 19 18 16 15 13 10 8 6 5 5 6 8 9 11 11 12 12 14 14 15 15 15 17
Wind_Direction
248 256 252 242 241 229 249 243 248 179 226 271 26 263 339 352 12 78 142 145 151 159 164 163 163 164 165 169 179 180 177 174 169 162 154 149 150 153 151 150 156 160 162 167 172 173 177 172 167
217 232 224 247 234 243 238 239 242 222 138 110 237 240 229 84 60 101 136 149 157 160 164 166 166 166 167 171 181 182 181 178 175 168 160 154 155 158 158 160 159 160 164 172 175 171 167 165 161
208 214 232 217 234 238 246 236 232 192 110 217 236 229 38 71 87 117 135 154 159 160 164 169 167 167 167 170 180 184 183 182 179 174 168 163 164 166 168 168 166 162 161 159 163 158 160 160 157
202 209 241 246 233 225 248 261 220 192 173 201 232 247 127 69 65 113 147 156 161 162 164 168 168 167 168 167 177 184 184 184 183 181 180 174 173 174 174 173 172 168 164 161 161 154 158 156 153
211 230 230 232 240 247 225 240 175 230 242 215 217 248 121 107 95 141 151 161 160 162 170 170 169 168 169 172 178 182 186 188 189 190 189 185 181 181 180 180 180 178 174 172 172 172 166 170 178
213 229 235 233 238 232 245 243 255 203 223 206 182 253 151 121 117 152 158 164 163 165 171 172 170 170 169 171 177 182 188 193 197 200 198 192 187 188 187 188 186 186 186 189 192 192 191 195 203
231 218 236 245 245 238 227 237 213 255 223 242 207 254 117 148 141 158 162 164 167 169 169 173 171 173 171 171 174 180 188 196 200 202 199 196 196 193 195 197 195 198 200 204 213 218 217 221 231
228 250 243 241 249 249 237 216 231 246 248 241 239 238 252 136 146 161 164 167 171 171 172 170 172 173 174 173 174 177 180 185 193 194 196 198 199 199 202 208 211 214 219 225 232 237 240 243 248
221 239 238 238 240 244 248 205 229 233 248 236 231 224 115 134 148 163 170 173 174 175 177 174 174 174 172 178 178 177 179 180 185 190 192 192 198 200 208 213 220 226 233 241 246 251 254 256 258
223 228 236 239 244 249 238 216 218 207 221 224 218 205 144 161 162 171 179 180 180 179 180 179 179 178 174 179 184 182 182 183 186 191 192 192 192 210 212 228 229 230 239 246 252 259 262 260 262
219 234 232 245 255 257 220 225 228 206 221 214 206 209 195 190 185 185 188 188 185 183 182 182 180 182 179 182 186 180 186 186 189 192 202 182 200 217 205 229 245 237 241 249 255 261 260 261 253
221 230 246 259 238 252 242 244 233 224 232 235 203 209 189 198 198 198 196 192 187 186 185 184 183 185 181 186 190 187 191 193 193 198 211 182 197 216 215 222 246 255 242 263 241 261 271 259 254
223 231 236 236 251 227 234 245 242 234 216 227 208 208 210 211 202 205 203 199 191 189 188 187 186 188 185 187 191 190 195 199 202 205 214 197 211 220 224 227 230 242 250 248 258 256 259 263 262
222 230 237 250 235 236 234 239 235 236 223 223 207 213 221 218 213 201 202 201 197 192 188 188 188 192 188 187 193 194 198 203 201 207 213 208 215 221 227 235 241 239 249 253 255 264 264 267 267
231 233 233 234 229 237 228 240 232 224 214 208 225 228 231 222 214 212 206 204 200 192 190 189 188 192 192 193 194 196 206 203 207 208 210 214 218 220 230 240 252 257 258 258 262 266 271 272 271
231 236 230 216 225 222 221 240 224 225 220 218 224 220 217 220 213 208 209 200 198 189 188 188 188 196 198 200 198 201 203 209 213 213 217 226 228 226 241 235 251 262 261 266 268 268 274 274 276
213 220 224 227 208 215 210 226 245 217 216 222 218 218 212 215 215 210 204 196 189 187 189 189 190 195 202 197 200 203 211 205 212 214 219 228 233 221 230 238 247 256 263 273 278 282 281 280 275
206 216 221 218 206 206 218 226 254 206 215 210 218 213 216 215 210 207 201 194 188 188 187 187 190 191 194 198 196 207 208 203 212 215 227 218 225 227 237 242 251 267 273 274 262 266 265 267 274
226 222 219 211 223 197 222 224 219 206 228 201 210 211 211 210 204 198 197 196 187 181 186 184 184 191 195 197 197 200 205 197 210 213 212 227 240 230 240 243 250 259 284 284 281 280 281 279 274
232 238 214 218 197 186 213 226 209 210 215 199 203 197 200 200 199 194 186 192 188 181 188 183 185 184 184 194 187 197 200 196 197 209 214 212 210 218 234 255 262 280 286 289 283 287 289 292 291
218 227 232 196 178 206 223 221 224 215 195 201 210 201 200 200 197 190 180 190 188 189 191 188 187 186 178 189 181 173 175 180 185 205 213 199 201 225 243 255 270 275 283 299 281 288 284 291 294
211 218 231 184 183 204 221 217 212 205 212 214 204 207 192 194 194 178 185 182 184 187 192 191 184 185 170 182 176 174 177 187 186 193 193 191 220 226 245 267 284 288 288 282 280 286 287 290 296
220 205 221 201 205 201 202 242 196 202 208 203 203 202 192 186 186 180 181 178 173 175 179 179 182 178 174 163 171 173 172 190 159 161 174 191 221 216 248 271 278 281 291 284 285 289 299 290 283
215 207 206 214 213 206 208 212 225 187 202 187 192 197 189 180 184 185 181 170 164 167 165 164 166 164 165 163 172 164 176 160 166 162 148 155 152 261 253 279 294 306 307 308 314 310 314 303 301
211 200 189 194 195 207 188 202 248 176 187 179 186 188 186 164 172 156 155 157 160 157 156 159 164 156 154 164 157 164 166 168 178 137 152 137 127 100 307 305 305 307 314 314 315 316 312 310 303
197 180 195 179 195 197 186 209 204 66 96 195 180 152 146 168 169 175 156 152 151 148 149 149 143 136 139 150 153 150 134 132 130 138 132 124 117 224 303 309 316 317 318 318 318 318 305 298 301
186 201 208 198 201 196 183 147 78 124 105 89 103 122 160 166 133 132 146 146 143 140 137 137 133 127 121 121 122 124 130 139 132 131 118 147 143 13 328 324 329 330 326 324 324 328 320 309 311
190 206 202 226 196 220 188 163 156 162 150 121 116 125 144 143 144 142 134 132 130 128 128 124 123 120 117 115 113 112 116 120 124 126 129 130 60 337 336 335 333 331 329 325 320 316 310 312 317
196 193 216 224 231 203 185 175 158 161 156 141 134 144 150 137 130 128 129 127 124 124 122 119 119 117 113 110 108 106 104 105 108 98 86 48 1 347 337 333 333 332 330 325 324 324 328 313 315
194 202 208 209 227 249 168 81 170 135 136 137 142 152 138 137 136 131 128 126 123 121 121 118 115 111 106 104 102 99 98 94 89 79 45 12 348 342 340 334 335 336 333 330 331 325 322 321 314